[[{"header":{"parameterUnit":"m.s-1","parameterCategory":2,"la1":30.2992,"la2":30.254,"lo1":-89.0895,"lo2":-89.0443,"dy":0.0025,"dx":0.0025,"nx":19,"ny":19,"refTime":"2026-03-08T09:00:00:Z","depth":"0","parameterNumber":2,"parameterNumberName":"U-component_of_CURRENTS"},"data":[0,0,0,0.098,0.0983,0.1101,0.1101,0.1237,0.1239,0,0,0,0,0,0,0,0,0,0,0,0.0927,0.0927,0.098,0.0983,0.1101,0.1102,0.1237,0.1239,0,0,0,0,0,0,0,0,0,0,0,0.0927,0.0927,0.0928,0.0983,0.1101,0.1102,0.1237,0.1153,0,0,0,0,0,0,0,0,0,0,0.1041,0.098,0.0927,0.0928,0.0984,0.1101,0.1102,0.115,0.1159,0.1177,0,0.1183,0,0.1217,0.1247,0.1247,0,0,0,0.099,0.0972,0.1016,0.0928,0.0985,0.11,0.105,0.1155,0.1165,0.1189,0.1186,0.1191,0.1219,0.1247,0.1248,0.1308,0.1307,0,0,0.0984,0.0942,0.1009,0.1022,0.1,0.1046,0.1053,0.1161,0.1157,0.1186,0.1195,0.1221,0.1248,0.1249,0.1308,0.1308,0,0,0,0.096,0.0937,0.0979,0.1016,0.104,0.1049,0.1058,0.1152,0.1169,0.1197,0.1223,0.1249,0.125,0.1308,0.1308,0.1321,0,0,0,0.0956,0.0923,0.0975,0.0951,0.1038,0.1098,0.1046,0.1161,0.1175,0.1222,0.1249,0.1252,0.1309,0.1308,0.1321,0.1363,0,0,0,0.0924,0.092,0.0931,0.0948,0.0999,0.1097,0.112,0.1165,0.1191,0.1247,0.1252,0.1309,0.1308,0.1322,0.1362,0.1466,0,0,0,0.0882,0.088,0.093,0.0937,0.0998,0.1064,0.112,0.1172,0.1215,0.125,0.1308,0.1308,0.1322,0.1362,0.1464,0.1585,0.1605,0,0,0.0857,0.0875,0.0883,0.0931,0.0988,0.1049,0.1109,0.1188,0.1212,0.1274,0.1276,0.1321,0.1362,0.1465,0.1549,0.1572,0,0,0,0.0861,0.0875,0.0895,0.0944,0.1001,0.1087,0.1153,0.119,0.1254,0.1234,0.1305,0.1331,0.1397,0.1463,0.1479,0.1482,0.1305,0.1305,0.1305,0.0793,0.0849,0.0886,0.0967,0.1011,0.1114,0.1181,0.1243,0.1248,0.1268,0.1328,0.14,0.1465,0.148,0.1479,0.1293,0.1293,0.1293,0.1293,0.0803,0.0851,0.0912,0.0973,0.106,0.112,0.1236,0.1266,0.138,0.1333,0.1396,0.1455,0.15,0.1492,0.1294,0.1294,0.1294,0.1294,0.1294,0.0809,0.0844,0.088,0.0979,0.1068,0.1157,0.1303,0.1359,0.1415,0.1471,0.1597,0.1598,0.1612,0.1512,0.1513,0.1513,0.1514,0.1514,0.1515,0.0812,0.0854,0.091,0.1001,0.1064,0.1188,0.1357,0.1477,0.1628,0.1657,0.1658,0.1638,0.1468,0.1484,0.1524,0.1522,0.1521,0.152,0.152,0.0862,0.0862,0.0944,0.1002,0.1153,0.1281,0.1439,0.1711,0.1839,0.1943,0.1894,0.1776,0.1811,0.1797,0.1821,0.1946,0.1946,0.1946,0.1946,0.088,0.0891,0.0984,0.1074,0.1207,0.1333,0.1572,0.1796,0.2004,0.2074,0.2066,0.2004,0.1987,0.2025,0.2007,0.2032,0.2208,0.2208,0.2208,0.092,0.0937,0.1005,0.1081,0.1222,0.1389,0.1569,0.1742,0.2055,0.2212,0.2047,0.2036,0.1928,0.1901,0.1941,0.1915,0.1949,0,0]},{"header":{"parameterUnit":"m.s-1","parameterCategory":2,"la1":30.2992,"la2":30.254,"lo1":-89.0895,"lo2":-89.0443,"dy":0.0025,"dx":0.0025,"nx":19,"ny":19,"refTime":"2026-03-08T09:00:00:Z","depth":"0","parameterNumber":3,"parameterNumberName":"V-component_of_CURRENTS"},"data":[0,0,0,0.0244,0.0244,0.0214,0.0214,0.0174,0.0174,0,0,0,0,0,0,0,0,0,0,0,0.0241,0.0241,0.0244,0.0244,0.0214,0.0213,0.0174,0.0174,0,0,0,0,0,0,0,0,0,0,0,0.0241,0.0241,0.0241,0.0244,0.0214,0.0213,0.0174,0.0194,0,0,0,0,0,0,0,0,0,0,0.0221,0.0234,0.0241,0.0241,0.0244,0.0214,0.0213,0.0194,0.0192,0.0192,0,0.0186,0,0.0192,0.0172,0.0172,0,0,0,0.0229,0.0235,0.0223,0.0241,0.0244,0.0214,0.0223,0.0193,0.0191,0.0189,0.0186,0.0185,0.0191,0.0172,0.0172,0.0119,0.0118,0,0,0.0231,0.024,0.0224,0.0221,0.0235,0.0224,0.0223,0.0192,0.0192,0.0186,0.0184,0.019,0.0172,0.0172,0.0119,0.0118,0,0,0,0.0246,0.0241,0.0229,0.0223,0.0224,0.0224,0.0222,0.0193,0.0187,0.0184,0.019,0.0172,0.0172,0.012,0.0119,0.015,0,0,0,0.0246,0.0251,0.023,0.0235,0.0225,0.0212,0.0224,0.0189,0.0186,0.019,0.0172,0.0172,0.012,0.0119,0.015,0.0187,0,0,0,0.0243,0.0251,0.0246,0.0236,0.023,0.0212,0.0205,0.0188,0.0191,0.0172,0.0172,0.012,0.0119,0.015,0.0186,0.0225,0,0,0,0.0255,0.0249,0.0246,0.0247,0.0231,0.0216,0.0205,0.0194,0.0179,0.0172,0.012,0.0119,0.015,0.0185,0.0224,0.0371,0.0388,0,0,0.0255,0.025,0.0252,0.0248,0.0246,0.0219,0.0208,0.0187,0.0159,0.0129,0.0127,0.015,0.0186,0.0225,0.031,0.033,0,0,0,0.0257,0.0258,0.0254,0.0257,0.0242,0.0224,0.02,0.018,0.014,0.0149,0.012,0.0141,0.0166,0.025,0.0264,0.02,0.0114,0.0114,0.0114,0.0273,0.0272,0.0279,0.0268,0.0257,0.0228,0.0206,0.0167,0.0145,0.0121,0.0143,0.0164,0.0251,0.0265,0.0194,0.0103,0.0103,0.0103,0.0104,0.0297,0.0313,0.0305,0.0308,0.0286,0.0272,0.0221,0.0195,0.0172,0.0135,0.0157,0.0249,0.0283,0.0202,0.0105,0.0105,0.0105,0.0104,0.0104,0.033,0.0337,0.0334,0.0347,0.0346,0.0314,0.0346,0.0276,0.0218,0.0223,0.0332,0.0333,0.0287,0.0242,0.0243,0.0243,0.0243,0.0243,0.0244,0.037,0.0367,0.0391,0.0394,0.041,0.0439,0.042,0.0433,0.043,0.0392,0.0393,0.0288,0.0207,0.023,0.0248,0.0248,0.0247,0.0246,0.0246,0.0426,0.0418,0.046,0.0479,0.0537,0.0649,0.0623,0.0704,0.0675,0.0707,0.0508,0.048,0.0496,0.0484,0.0513,0.0604,0.0604,0.0604,0.0604,0.0468,0.0466,0.0534,0.059,0.0674,0.075,0.0964,0.1007,0.0847,0.0747,0.0613,0.0589,0.0577,0.0593,0.0579,0.0607,0.0719,0.0719,0.0718,0.0516,0.0528,0.0594,0.0641,0.0736,0.0906,0.1156,0.1278,0.0982,0.0707,0.0489,0.0484,0.0425,0.0412,0.0414,0.0401,0.0438,0,0]}],[{"header":{"parameterUnit":"m.s-1","parameterCategory":2,"la1":30.2992,"la2":30.254,"lo1":-89.0895,"lo2":-89.0443,"dy":0.0025,"dx":0.0025,"nx":19,"ny":19,"refTime":"2026-03-08T09:00:00:Z","depth":"2","parameterNumber":2,"parameterNumberName":"U-component_of_CURRENTS"},"data":[0,0,0,0.1105,0.1105,0.1098,0.1098,0.108,0.108,0,0,0,0,0,0,0,0,0,0,0,0.1092,0.1092,0.1105,0.1105,0.1098,0.1098,0.108,0.108,0,0,0,0,0,0,0,0,0,0,0,0.1092,0.1092,0.1092,0.1105,0.1098,0.1098,0.108,0.1086,0,0,0,0,0,0,0,0,0,0,0.1093,0.1069,0.1092,0.1092,0.1105,0.1098,0.1098,0.1086,0.1085,0.1083,0,0.1074,0,0.1086,0.1079,0.1079,0,0,0,0.1098,0.1069,0.1088,0.1092,0.1105,0.1098,0.1099,0.1086,0.1085,0.1082,0.1074,0.1074,0.1086,0.1079,0.1079,0.1115,0.1115,0,0,0.1098,0.1073,0.1088,0.1087,0.1094,0.11,0.1099,0.1085,0.1068,0.1074,0.1074,0.1086,0.1079,0.1079,0.1115,0.1115,0,0,0,0.1104,0.1073,0.1091,0.1087,0.1092,0.11,0.1099,0.1068,0.108,0.1074,0.1086,0.1079,0.1079,0.1114,0.1115,0.1142,0,0,0,0.1104,0.1078,0.1091,0.1074,0.1092,0.1078,0.1082,0.108,0.108,0.1086,0.1079,0.1079,0.1113,0.1114,0.114,0.1151,0,0,0,0.1094,0.1077,0.1078,0.1073,0.1078,0.1079,0.1088,0.108,0.1087,0.1079,0.1079,0.1113,0.1114,0.1139,0.1148,0.127,0,0,0,0.1068,0.1047,0.1076,0.106,0.1078,0.1099,0.1088,0.1085,0.1078,0.1079,0.1114,0.1115,0.1138,0.1147,0.1266,0.129,0.1308,0,0,0.1031,0.1041,0.1038,0.1065,0.1089,0.11,0.1123,0.1104,0.1099,0.1115,0.1115,0.1141,0.1148,0.1269,0.1356,0.1372,0,0,0,0.1021,0.1022,0.1033,0.1052,0.1081,0.112,0.1116,0.113,0.1145,0.1102,0.1157,0.1161,0.1237,0.1244,0.1257,0.112,0.112,0.112,0.112,0.0924,0.0977,0.0991,0.1059,0.108,0.1131,0.1163,0.1186,0.1167,0.1189,0.1195,0.1318,0.1323,0.1334,0.1209,0.1209,0.1209,0.1209,0.1209,0.0906,0.094,0.0994,0.1032,0.1096,0.1123,0.1204,0.1216,0.1303,0.1245,0.1319,0.1284,0.135,0.1212,0.1211,0.1211,0.1211,0.121,0.121,0.0878,0.0913,0.0933,0.1011,0.1065,0.1131,0.125,0.1287,0.1333,0.1387,0.1461,0.146,0.1362,0.145,0.145,0.1451,0.1451,0.1452,0.1452,0.086,0.0894,0.0934,0.1002,0.1049,0.1138,0.1282,0.1379,0.1491,0.1506,0.1508,0.14,0.1393,0.1379,0.1461,0.146,0.1458,0.1458,0.1457,0.0883,0.0881,0.0952,0.0994,0.1112,0.118,0.1341,0.1544,0.1667,0.1728,0.1606,0.1599,0.1611,0.1599,0.1592,0.1725,0.1725,0.1725,0.1725,0.0884,0.0894,0.0984,0.1059,0.1159,0.1215,0.1369,0.1488,0.1618,0.1626,0.1629,0.1535,0.1528,0.1529,0.1519,0.1506,0.1618,0.1617,0.1617,0.0908,0.0936,0.0993,0.1062,0.1172,0.1229,0.1271,0.1305,0.145,0.1604,0.1522,0.1735,0.1603,0.159,0.1591,0.1575,0.1556,0,0]},{"header":{"parameterUnit":"m.s-1","parameterCategory":2,"la1":30.2992,"la2":30.254,"lo1":-89.0895,"lo2":-89.0443,"dy":0.0025,"dx":0.0025,"nx":19,"ny":19,"refTime":"2026-03-08T09:00:00:Z","depth":"2","parameterNumber":3,"parameterNumberName":"V-component_of_CURRENTS"},"data":[0,0,0,-0.0521,-0.0521,-0.0509,-0.0509,-0.0507,-0.0507,0,0,0,0,0,0,0,0,0,0,0,-0.0524,-0.0524,-0.0521,-0.0521,-0.0509,-0.0509,-0.0507,-0.0507,0,0,0,0,0,0,0,0,0,0,0,-0.0524,-0.0524,-0.0524,-0.0521,-0.0509,-0.0509,-0.0507,-0.0512,0,0,0,0,0,0,0,0,0,0,-0.0522,-0.0516,-0.0524,-0.0524,-0.0521,-0.0509,-0.0509,-0.0512,-0.0512,-0.0517,0,-0.0516,0,-0.0514,-0.0508,-0.0508,0,0,0,-0.0518,-0.0516,-0.0521,-0.0524,-0.0521,-0.0509,-0.0514,-0.0512,-0.0511,-0.0517,-0.0516,-0.0516,-0.0514,-0.0508,-0.0508,-0.049,-0.049,0,0,-0.0519,-0.0514,-0.0521,-0.0521,-0.0519,-0.0514,-0.0513,-0.0511,-0.0507,-0.0516,-0.0516,-0.0514,-0.0508,-0.0508,-0.049,-0.049,0,0,0,-0.0523,-0.0514,-0.0519,-0.0521,-0.0519,-0.0514,-0.0513,-0.0506,-0.0511,-0.0516,-0.0514,-0.0508,-0.0508,-0.049,-0.049,-0.0446,0,0,0,-0.0523,-0.0517,-0.0519,-0.0515,-0.0519,-0.0509,-0.0508,-0.0511,-0.051,-0.0514,-0.0508,-0.0508,-0.0491,-0.049,-0.0448,-0.0405,0,0,0,-0.0524,-0.0516,-0.0517,-0.0515,-0.0512,-0.0509,-0.0512,-0.051,-0.051,-0.0508,-0.0508,-0.0491,-0.049,-0.0449,-0.0408,-0.0326,0,0,0,-0.0517,-0.0495,-0.0517,-0.0491,-0.0512,-0.0489,-0.0512,-0.0496,-0.0491,-0.0508,-0.0491,-0.049,-0.045,-0.0411,-0.033,-0.0217,-0.0193,0,0,-0.0481,-0.049,-0.0474,-0.0494,-0.0458,-0.049,-0.0452,-0.0461,-0.0485,-0.0492,-0.0492,-0.0447,-0.0409,-0.0327,-0.0183,-0.016,0,0,0,-0.0457,-0.0442,-0.0437,-0.0423,-0.0425,-0.0411,-0.0428,-0.0439,-0.0446,-0.0481,-0.0448,-0.0424,-0.0374,-0.0313,-0.0295,-0.0487,-0.0487,-0.0487,-0.0487,-0.0352,-0.0372,-0.0338,-0.0353,-0.0346,-0.0355,-0.035,-0.037,-0.0409,-0.0408,-0.039,-0.0298,-0.0235,-0.0219,-0.0404,-0.0404,-0.0404,-0.0404,-0.0404,-0.0267,-0.0241,-0.0267,-0.0241,-0.025,-0.0232,-0.0267,-0.0295,-0.0282,-0.0345,-0.0299,-0.0272,-0.0196,-0.04,-0.0401,-0.0402,-0.0402,-0.0402,-0.0402,-0.0176,-0.0173,-0.0161,-0.0135,-0.0117,-0.0151,-0.0097,-0.0158,-0.0213,-0.0191,-0.0096,-0.0096,-0.024,-0.0158,-0.0158,-0.0157,-0.0157,-0.0156,-0.0156,-0.0083,-0.0081,-0.0038,-0.0033,-0.0005,0.0015,0.0007,0.0019,0.002,-0.0012,-0.0011,-0.0214,-0.0222,-0.0225,-0.0148,-0.0149,-0.015,-0.0151,-0.0152,0.0001,0.0019,0.0078,0.0119,0.0165,0.0247,0.0241,0.0317,0.0308,0.0333,0.0099,0.009,0.0102,0.0087,0.0092,0.0247,0.0247,0.0247,0.0247,0.0076,0.0076,0.0181,0.0254,0.0325,0.0359,0.0549,0.0554,0.0458,0.0373,0.0367,0.0312,0.0294,0.0311,0.0291,0.0297,0.0506,0.0506,0.0507,0.0128,0.0155,0.0237,0.03,0.0393,0.049,0.068,0.0737,0.0586,0.051,0.0341,0.0278,0.0177,0.0157,0.0162,0.0138,0.014,0,0]}],[{"header":{"parameterUnit":"m.s-1","parameterCategory":2,"la1":30.2992,"la2":30.254,"lo1":-89.0895,"lo2":-89.0443,"dy":0.0025,"dx":0.0025,"nx":19,"ny":19,"refTime":"2026-03-08T09:00:00:Z","depth":"4","parameterNumber":2,"parameterNumberName":"U-component_of_CURRENTS"},"data":[0,0,0,0.0707,0.0708,0.0791,0.0792,0.0866,0.0867,0,0,0,0,0,0,0,0,0,0,0,0.0678,0.0678,0.0706,0.0709,0.0791,0.0792,0.0866,0.0867,0,0,0,0,0,0,0,0,0,0,0,0.0677,0.0678,0.0679,0.0709,0.0791,0.0792,0.0866,0.0811,0,0,0,0,0,0,0,0,0,0,0.0734,0.0716,0.0678,0.0679,0.0709,0.0791,0.0792,0.0809,0.0814,0.082,0,0.0837,0,0.0854,0.0871,0.0871,0,0,0,0.0707,0.0712,0.0731,0.0679,0.071,0.0791,0.0754,0.0812,0.0819,0.0828,0.0838,0.0842,0.0856,0.0872,0.0872,0.0956,0.0957,0,0,0.0703,0.0695,0.0727,0.0735,0.0737,0.0751,0.0756,0.0816,0.0826,0.0839,0.0844,0.0857,0.0872,0.0873,0.0956,0.0956,0,0,0,0.069,0.0692,0.0711,0.0732,0.075,0.0753,0.076,0.0824,0.0829,0.0845,0.0858,0.0872,0.0873,0.0955,0.0956,0.0983,0,0,0,0.0688,0.0685,0.0708,0.0705,0.0749,0.0793,0.0766,0.0825,0.0833,0.0857,0.0873,0.0874,0.0955,0.0956,0.0981,0.0979,0,0,0,0.0673,0.0684,0.0694,0.0704,0.0741,0.0793,0.0802,0.0827,0.0841,0.0872,0.0874,0.0955,0.0956,0.0979,0.0977,0.1013,0,0,0,0.0661,0.0673,0.0694,0.0715,0.074,0.0788,0.0802,0.0852,0.0881,0.0873,0.0955,0.0956,0.0979,0.0975,0.1011,0.0886,0,0,0,0.0663,0.0673,0.0684,0.0704,0.0742,0.0777,0.0829,0.0878,0.0897,0.0931,0.0934,0.0981,0.0976,0.1012,0.0948,0,0,0,0,0.0675,0.0686,0.0701,0.0732,0.077,0.0813,0.0865,0.0901,0.0961,0.092,0.0995,0.0991,0.1013,0.0936,0.0961,0.0961,0.0961,0.0961,0.0961,0.0666,0.0687,0.071,0.0742,0.078,0.0854,0.0899,0.0958,0.0977,0.1017,0.1023,0.108,0.1001,0.1042,0.1043,0.1043,0.1043,0.1043,0.1043,0.0663,0.0672,0.0715,0.0746,0.0798,0.0854,0.0944,0.0983,0.1065,0.1062,0.1083,0.0981,0.1046,0.1045,0.1045,0.1045,0.1044,0.1044,0.1044,0.0644,0.0651,0.068,0.073,0.0793,0.0866,0.0941,0.1016,0.1083,0.1113,0.1051,0.1103,0.1089,0.1141,0.1141,0.1141,0.1141,0.1141,0.1141,0.0608,0.0636,0.0659,0.0716,0.0754,0.0828,0.0947,0.1,0.1081,0.1063,0.1131,0.1113,0.111,0.1095,0.1144,0.1143,0.1143,0.1143,0.1143,0.0579,0.0601,0.0624,0.0655,0.0724,0.0762,0.0882,0.0962,0.1014,0.103,0.1039,0.1043,0.1022,0.1021,0.1002,0.1025,0.1024,0.1022,0,0.0557,0.0568,0.0596,0.062,0.065,0.0719,0.0763,0.0841,0.0925,0.0895,0.1013,0.1019,0.1023,0.0994,0.0991,0.0966,0,0,0,0.054,0.0552,0.0556,0.0584,0.0608,0.0673,0.0767,0.0777,0.0907,0.0928,0.0986,0.0996,0.1072,0.1151,0.113,0.1126,0.1101,0,0]},{"header":{"parameterUnit":"m.s-1","parameterCategory":2,"la1":30.2992,"la2":30.254,"lo1":-89.0895,"lo2":-89.0443,"dy":0.0025,"dx":0.0025,"nx":19,"ny":19,"refTime":"2026-03-08T09:00:00:Z","depth":"4","parameterNumber":3,"parameterNumberName":"V-component_of_CURRENTS"},"data":[0,0,0,-0.0023,-0.0024,-0.0067,-0.0067,-0.009,-0.009,0,0,0,0,0,0,0,0,0,0,0,0.0003,0.0004,-0.0023,-0.0024,-0.0067,-0.0067,-0.009,-0.009,0,0,0,0,0,0,0,0,0,0,0,0.0003,0.0004,0.0004,-0.0024,-0.0067,-0.0067,-0.009,-0.0066,0,0,0,0,0,0,0,0,0,0,-0.0028,-0.0013,0.0003,0.0004,-0.0024,-0.0067,-0.0067,-0.0065,-0.0067,-0.0061,0,-0.0058,0,-0.0078,-0.0091,-0.0091,0,0,0,-0.0026,-0.0011,-0.0019,0.0004,-0.0025,-0.0067,-0.0048,-0.0067,-0.0069,-0.0063,-0.0059,-0.0061,-0.0078,-0.0091,-0.0091,-0.0043,-0.0043,0,0,-0.0023,-0.001,-0.0017,-0.002,-0.0024,-0.0046,-0.0049,-0.0068,-0.0067,-0.0059,-0.0061,-0.0079,-0.0091,-0.0091,-0.0044,-0.0043,0,0,0,-0.0015,-0.0009,-0.0017,-0.0018,-0.0031,-0.0048,-0.0051,-0.0066,-0.0068,-0.0062,-0.0079,-0.0091,-0.0091,-0.0045,-0.0044,0.0007,0,0,0,-0.0014,-0.0004,-0.0015,-0.0009,-0.003,-0.0056,-0.0048,-0.0066,-0.0069,-0.0079,-0.0091,-0.0091,-0.0045,-0.0044,0.0004,0.0031,0,0,0,0.0003,-0.0003,-0.0003,-0.0008,-0.0027,-0.0056,-0.0059,-0.0067,-0.008,-0.0091,-0.0091,-0.0046,-0.0044,0.0002,0.0026,0.004,0,0,0,0.0011,0.0026,-0.0002,0.0016,-0.0027,-0.001,-0.0059,-0.0063,-0.0068,-0.0091,-0.0045,-0.0044,0.0001,0.0024,0.0038,0.0029,0,0,0,0.0037,0.003,0.0043,0.0016,0.0037,-0.0005,0.0025,-0.0015,-0.0043,-0.0039,-0.0038,0.0005,0.0026,0.004,0.0111,0,0,0,0,0.0056,0.0061,0.0066,0.0068,0.007,0.0075,0.0038,0.0028,0.0017,-0.004,0.0019,0.0031,0.0038,0.0027,-0.0037,-0.0037,-0.0037,-0.0038,-0.0038,0.0086,0.0089,0.0113,0.0119,0.0135,0.0127,0.0132,0.0113,0.0075,0.0081,0.0083,0.0144,0.0137,0.0092,0.0093,0.0093,0.0093,0.0093,0.0093,0.0117,0.0129,0.0143,0.0165,0.0182,0.0207,0.0215,0.019,0.0191,0.0153,0.0156,0.0095,0.0099,0.0098,0.0097,0.0096,0.0096,0.0095,0.0095,0.0121,0.0132,0.0144,0.0183,0.0225,0.0247,0.0289,0.0276,0.024,0.0249,0.0211,0.0178,0.016,0.0237,0.0237,0.0238,0.0238,0.0238,0.0238,0.0122,0.0138,0.0166,0.0207,0.0243,0.0296,0.0328,0.033,0.0299,0.0276,0.0255,0.0193,0.0188,0.0169,0.0241,0.0241,0.024,0.024,0.024,0.0134,0.014,0.0185,0.022,0.0307,0.0348,0.0377,0.0369,0.0367,0.0338,0.0285,0.0281,0.0258,0.0252,0.0233,0.0327,0.0328,0.0328,0,0.0142,0.0148,0.0216,0.028,0.0352,0.039,0.041,0.0406,0.0358,0.0354,0.0354,0.0294,0.0291,0.0264,0.0259,0.0238,0,0,0,0.0159,0.0179,0.0231,0.0294,0.0377,0.0408,0.0421,0.0408,0.0369,0.0353,0.0332,0.0331,0.0281,0.025,0.0207,0.0201,0.0167,0,0]}]]